QPF
0.00 0.00 0.00 0.00 0.00 0.00 0.00 0.00 0.00 0.00 0.00 0.00 0.00 0.00 0.00 0.00 0.00 0.00 0.00 0.00 0.00 0.00 0.00 0.00 0.00 0.00 0.00 0.00 0.00 0.00 0.00 0.00 0.00 0.00 0.00 0.00 0.00 0.00 0.00 0.00 0.00 0.00 0.00 0.00
0.00 0.00 0.00 0.00 0.00 0.00 0.00 0.00 0.00 0.00 0.00 0.00 0.00 0.00 0.00 0.00 0.00 0.00 0.00 0.00 0.00 0.00 0.00 0.00 0.00 0.00 0.00 0.00 0.00 0.00 0.00 0.00 0.00 0.00 0.00 0.00 0.00 0.00 0.00 0.00 0.00 0.00 0.00 0.00
0.00 0.00 0.00 0.00 0.00 0.00 0.00 0.00 0.00 0.00 0.00 0.00 0.00 0.00 0.00 0.00 0.00 0.00 0.00 0.00 0.00 0.00 0.00 0.00 0.00 0.00 0.00 0.00 0.00 0.00 0.00 0.00 0.00 0.00 0.00 0.00 0.00 0.00 0.00 0.00 0.00 0.00 0.00 0.00
0.00 0.00 0.00 0.00 0.00 0.00 0.00 0.00 0.00 0.00 0.00 0.00 0.00 0.00 0.00 0.00 0.00 0.00 0.00 0.00 0.00 0.00 0.00 0.00 0.00 0.00 0.00 0.00 0.00 0.00 0.00 0.00 0.00 0.00 0.00 0.00 0.00 0.00 0.00 0.00 0.00 0.00 0.00 0.00
0.00 0.00 0.00 0.00 0.00 0.00 0.00 0.00 0.00 0.00 0.00 0.00 0.00 0.00 0.00 0.00 0.00 0.00 0.00 0.00 0.00 0.00 0.00 0.00 0.00 0.00 0.00 0.00 0.00 0.00 0.00 0.00 0.00 0.00 0.00 0.00 0.00 0.00 0.00 0.00 0.00 0.00 0.00 0.00
0.00 0.00 0.00 0.00 0.00 0.00 0.00 0.00 0.00 0.00 0.00 0.00 0.00 0.00 0.00 0.00 0.00 0.00 0.00 0.00 0.00 0.00 0.00 0.00 0.00 0.00 0.00 0.00 0.00 0.00 0.00 0.00 0.00 0.00 0.00 0.00 0.00 0.00 0.00 0.00 0.00 0.00 0.00 0.00
0.00 0.00 0.00 0.00 0.00 0.00 0.00 0.00 0.00 0.00 0.00 0.00 0.00 0.00 0.00 0.00 0.00 0.00 0.00 0.00 0.00 0.00 0.00 0.00 0.00 0.00 0.00 0.00 0.00 0.00 0.00 0.00 0.00 0.00 0.00 0.00 0.00 0.00 0.00 0.00 0.00 0.00 0.00 0.00
0.00 0.00 0.00 0.00 0.00 0.00 0.00 0.00 0.00 0.00 0.00 0.00 0.00 0.00 0.00 0.00 0.00 0.00 0.00 0.00 0.00 0.00 0.00 0.00 0.00 0.00 0.00 0.00 0.00 0.00 0.00 0.00 0.00 0.00 0.00 0.00 0.00 0.00 0.00 0.00 0.00 0.00 0.00 0.00
0.00 0.00 0.00 0.00 0.00 0.00 0.00 0.00 0.00 0.00 0.00 0.00 0.00 0.00 0.00 0.00 0.00 0.00 0.00 0.00 0.00 0.00 0.00 0.00 0.00 0.00 0.00 0.00 0.00 0.00 0.00 0.00 0.00 0.00 0.00 0.00 0.00 0.00 0.00 0.00 0.00 0.00 0.00 0.00
0.00 0.00 0.00 0.00 0.00 0.00 0.00 0.00 0.00 0.00 0.00 0.00 0.00 0.00 0.00 0.00 0.00 0.00 0.00 0.00 0.00 0.00 0.00 0.00 0.00 0.00 0.00 0.00 0.00 0.00 0.00 0.00 0.00 0.00 0.00 0.00 0.00 0.00 0.00 0.00 0.00 0.00 0.00 0.00
0.00 0.00 0.00 0.00 0.00 0.00 0.00 0.00 0.00 0.00 0.00 0.00 0.00 0.00 0.00 0.00 0.00 0.00 0.00 0.00 0.00 0.00 0.00 0.00 0.00 0.00 0.00 0.00 0.00 0.00 0.00 0.00 0.00 0.00 0.00 0.00 0.00 0.00 0.00 0.00 0.00 0.00 0.00 0.00
0.00 0.00 0.00 0.00 0.00 0.00 0.00 0.00 0.00 0.00 0.00 0.00 0.00 0.00 0.00 0.00 0.00 0.00 0.00 0.00 0.00 0.00 0.00 0.00 0.00 0.00 0.00 0.00 0.00 0.00 0.00 0.00 0.00 0.00 0.00 0.00 0.00 0.00 0.00 0.00 0.00 0.00 0.00 0.00
0.00 0.00 0.00 0.00 0.00 0.00 0.00 0.00 0.00 0.00 0.00 0.00 0.00 0.00 0.00 0.00 0.00 0.00 0.00 0.00 0.00 0.00 0.00 0.00 0.00 0.00 0.00 0.00 0.00 0.00 0.00 0.00 0.00 0.00 0.00 0.00 0.00 0.00 0.00 0.00 0.00 0.00 0.00 0.00
0.00 0.00 0.00 0.00 0.00 0.00 0.00 0.00 0.00 0.00 0.00 0.00 0.00 0.00 0.00 0.00 0.00 0.00 0.00 0.00 0.00 0.00 0.00 0.00 0.00 0.00 0.00 0.00 0.00 0.00 0.00 0.00 0.00 0.00 0.00 0.00 0.00 0.00 0.00 0.00 0.00 0.00 0.00 0.00
0.00 0.00 0.00 0.00 0.00 0.00 0.00 0.00 0.00 0.00 0.00 0.00 0.00 0.00 0.00 0.00 0.00 0.00 0.00 0.00 0.00 0.00 0.00 0.00 0.00 0.00 0.00 0.00 0.00 0.00 0.00 0.00 0.00 0.00 0.00 0.00 0.00 0.00 0.00 0.00 0.00 0.00 0.00 0.00
0.00 0.00 0.00 0.00 0.00 0.00 0.00 0.00 0.00 0.00 0.00 0.00 0.00 0.00 0.00 0.00 0.00 0.00 0.00 0.00 0.00 0.00 0.00 0.00 0.00 0.00 0.00 0.00 0.00 0.00 0.00 0.00 0.00 0.00 0.00 0.00 0.00 0.00 0.00 0.00 0.00 0.00 0.00 0.00
0.00 0.00 0.00 0.00 0.00 0.00 0.00 0.00 0.00 0.00 0.00 0.00 0.00 0.00 0.00 0.00 0.00 0.00 0.00 0.00 0.00 0.00 0.00 0.00 0.00 0.00 0.00 0.00 0.00 0.00 0.00 0.00 0.00 0.00 0.00 0.00 0.00 0.00 0.00 0.00 0.00 0.00 0.00 0.00
0.00 0.00 0.00 0.00 0.00 0.00 0.00 0.00 0.00 0.00 0.00 0.00 0.00 0.00 0.00 0.00 0.00 0.00 0.00 0.00 0.00 0.00 0.00 0.00 0.00 0.00 0.00 0.00 0.00 0.00 0.00 0.00 0.00 0.00 0.00 0.00 0.00 0.00 0.00 0.00 0.00 0.00 0.00 0.00
0.00 0.00 0.00 0.00 0.00 0.00 0.00 0.00 0.00 0.00 0.00 0.00 0.00 0.00 0.00 0.00 0.00 0.00 0.00 0.00 0.00 0.00 0.00 0.00 0.00 0.00 0.00 0.00 0.00 0.00 0.00 0.00 0.00 0.00 0.00 0.00 0.00 0.00 0.00 0.00 0.00 0.00 0.00 0.00
0.00 0.00 0.00 0.00 0.00 0.00 0.00 0.00 0.00 0.00 0.00 0.00 0.00 0.00 0.00 0.00 0.00 0.00 0.00 0.00 0.00 0.00 0.00 0.00 0.00 0.00 0.00 0.00 0.00 0.00 0.00 0.00 0.00 0.00 0.00 0.00 0.00 0.00 0.00 0.00 0.00 0.00 0.00 0.00
0.00 0.00 0.00 0.00 0.00 0.00 0.00 0.00 0.00 0.00 0.00 0.00 0.00 0.00 0.00 0.00 0.00 0.00 0.00 0.00 0.00 0.00 0.00 0.00 0.00 0.00 0.00 0.00 0.00 0.00 0.00 0.00 0.00 0.00 0.00 0.00 0.00 0.00 0.00 0.00 0.00 0.00 0.00 0.00
0.00 0.00 0.00 0.00 0.00 0.00 0.00 0.00 0.00 0.00 0.00 0.00 0.00 0.00 0.00 0.00 0.00 0.00 0.00 0.00 0.00 0.00 0.00 0.00 0.00 0.00 0.00 0.00 0.00 0.00 0.00 0.00 0.00 0.00 0.00 0.00 0.00 0.00 0.00 0.00 0.00 0.00 0.00 0.00
0.00 0.00 0.00 0.00 0.00 0.00 0.00 0.00 0.00 0.00 0.00 0.00 0.00 0.00 0.00 0.00 0.00 0.00 0.00 0.00 0.00 0.00 0.00 0.00 0.00 0.00 0.00 0.00 0.00 0.00 0.00 0.00 0.00 0.00 0.00 0.00 0.00 0.00 0.00 0.00 0.00 0.00 0.00 0.00
0.00 0.00 0.00 0.00 0.00 0.00 0.00 0.00 0.00 0.00 0.00 0.00 0.00 0.00 0.00 0.00 0.00 0.00 0.00 0.00 0.00 0.00 0.00 0.00 0.00 0.00 0.00 0.00 0.00 0.00 0.00 0.00 0.00 0.00 0.00 0.00 0.00 0.00 0.00 0.00 0.00 0.00 0.00 0.00
0.00 0.00 0.00 0.00 0.00 0.00 0.00 0.00 0.00 0.00 0.00 0.00 0.00 0.00 0.00 0.00 0.00 0.00 0.00 0.00 0.00 0.00 0.00 0.00 0.00 0.00 0.00 0.00 0.00 0.00 0.00 0.00 0.00 0.00 0.00 0.00 0.00 0.00 0.00 0.00 0.00 0.00 0.00 0.00
0.00 0.00 0.00 0.00 0.00 0.00 0.00 0.00 0.00 0.00 0.00 0.00 0.00 0.00 0.00 0.00 0.00 0.00 0.00 0.00 0.00 0.00 0.00 0.00 0.00 0.00 0.00 0.00 0.00 0.00 0.00 0.00 0.00 0.00 0.00 0.00 0.00 0.00 0.00 0.00 0.00 0.00 0.00 0.00
MSLP
1014.94 1015.45 1015.83 1016.08 1016.22 1016.28 1016.27 1016.21 1016.11 1015.97 1015.77 1015.53 1015.26 1014.97 1014.71 1014.53 1014.45 1014.50 1014.69 1014.99 1015.37 1015.76 1016.13 1016.43 1016.64 1016.77 1016.84 1016.88 1016.94 1017.06 1017.24 1017.51 1017.82 1018.18 1018.52 1018.84 1019.11 1019.34 1019.52 1019.68 1019.83 1020.00 1020.20 1020.42
1014.82 1015.24 1015.55 1015.79 1015.96 1016.09 1016.18 1016.24 1016.24 1016.17 1016.02 1015.77 1015.46 1015.11 1014.78 1014.53 1014.41 1014.45 1014.66 1015.02 1015.46 1015.95 1016.40 1016.78 1017.04 1017.21 1017.29 1017.34 1017.39 1017.49 1017.66 1017.91 1018.22 1018.55 1018.88 1019.17 1019.40 1019.57 1019.69 1019.78 1019.88 1019.99 1020.15 1020.33
1014.58 1014.90 1015.15 1015.38 1015.60 1015.82 1016.04 1016.22 1016.34 1016.35 1016.22 1015.97 1015.61 1015.18 1014.77 1014.45 1014.27 1014.29 1014.51 1014.90 1015.41 1015.97 1016.51 1016.96 1017.30 1017.51 1017.63 1017.69 1017.76 1017.86 1018.04 1018.29 1018.60 1018.93 1019.24 1019.50 1019.70 1019.83 1019.90 1019.94 1019.98 1020.04 1020.14 1020.29
1014.29 1014.51 1014.73 1014.96 1015.24 1015.56 1015.90 1016.20 1016.42 1016.49 1016.39 1016.11 1015.68 1015.17 1014.66 1014.24 1014.00 1013.98 1014.20 1014.62 1015.18 1015.82 1016.44 1016.97 1017.38 1017.66 1017.83 1017.93 1018.02 1018.15 1018.34 1018.60 1018.91 1019.24 1019.54 1019.79 1019.96 1020.06 1020.09 1020.09 1020.09 1020.10 1020.16 1020.26
1014.03 1014.18 1014.36 1014.62 1014.95 1015.36 1015.80 1016.20 1016.49 1016.60 1016.50 1016.17 1015.67 1015.06 1014.44 1013.92 1013.61 1013.54 1013.74 1014.18 1014.80 1015.50 1016.20 1016.82 1017.31 1017.67 1017.90 1018.06 1018.19 1018.34 1018.54 1018.81 1019.11 1019.44 1019.73 1019.97 1020.14 1020.22 1020.23 1020.21 1020.18 1020.17 1020.19 1020.25
1013.83 1013.93 1014.10 1014.37 1014.75 1015.24 1015.75 1016.22 1016.55 1016.67 1016.54 1016.15 1015.56 1014.84 1014.12 1013.51 1013.12 1013.01 1013.20 1013.65 1014.31 1015.07 1015.85 1016.56 1017.13 1017.56 1017.87 1018.08 1018.25 1018.42 1018.64 1018.90 1019.20 1019.52 1019.80 1020.04 1020.20 1020.29 1020.30 1020.29 1020.26 1020.23 1020.23 1020.25
1013.65 1013.73 1013.90 1014.19 1014.62 1015.15 1015.71 1016.22 1016.56 1016.66 1016.49 1016.03 1015.36 1014.55 1013.74 1013.06 1012.60 1012.45 1012.62 1013.08 1013.77 1014.59 1015.43 1016.21 1016.87 1017.38 1017.75 1018.02 1018.23 1018.43 1018.65 1018.90 1019.19 1019.49 1019.77 1020.01 1020.18 1020.28 1020.32 1020.32 1020.30 1020.29 1020.27 1020.27
1013.42 1013.52 1013.70 1014.02 1014.48 1015.03 1015.62 1016.13 1016.46 1016.54 1016.32 1015.81 1015.08 1014.21 1013.34 1012.59 1012.10 1011.91 1012.07 1012.53 1013.24 1014.09 1014.99 1015.83 1016.56 1017.14 1017.58 1017.91 1018.16 1018.38 1018.60 1018.86 1019.13 1019.42 1019.69 1019.92 1020.10 1020.23 1020.30 1020.33 1020.34 1020.34 1020.32 1020.30
1013.08 1013.19 1013.41 1013.75 1014.23 1014.80 1015.38 1015.88 1016.20 1016.25 1016.01 1015.47 1014.71 1013.82 1012.93 1012.16 1011.65 1011.45 1011.58 1012.04 1012.75 1013.62 1014.55 1015.44 1016.23 1016.87 1017.38 1017.76 1018.06 1018.30 1018.54 1018.80 1019.06 1019.34 1019.60 1019.84 1020.03 1020.18 1020.28 1020.34 1020.37 1020.38 1020.36 1020.32
1012.56 1012.71 1012.96 1013.33 1013.82 1014.38 1014.96 1015.44 1015.74 1015.79 1015.54 1015.01 1014.27 1013.40 1012.52 1011.78 1011.27 1011.06 1011.18 1011.62 1012.32 1013.18 1014.12 1015.04 1015.87 1016.57 1017.14 1017.59 1017.94 1018.23 1018.50 1018.76 1019.03 1019.30 1019.56 1019.79 1020.00 1020.16 1020.27 1020.35 1020.39 1020.40 1020.37 1020.30
1011.88 1012.07 1012.34 1012.73 1013.22 1013.78 1014.33 1014.80 1015.09 1015.13 1014.91 1014.42 1013.74 1012.93 1012.12 1011.42 1010.94 1010.74 1010.86 1011.27 1011.94 1012.78 1013.70 1014.63 1015.50 1016.25 1016.89 1017.41 1017.83 1018.18 1018.49 1018.78 1019.06 1019.32 1019.58 1019.80 1020.00 1020.16 1020.27 1020.35 1020.38 1020.37 1020.31 1020.20
1011.13 1011.35 1011.65 1012.04 1012.51 1013.04 1013.56 1014.00 1014.27 1014.33 1014.14 1013.73 1013.12 1012.41 1011.69 1011.07 1010.64 1010.47 1010.58 1010.96 1011.59 1012.39 1013.29 1014.22 1015.11 1015.92 1016.63 1017.22 1017.73 1018.15 1018.51 1018.83 1019.13 1019.39 1019.64 1019.85 1020.02 1020.16 1020.25 1020.30 1020.30 1020.26 1020.16 1020.00
1010.46 1010.69 1010.99 1011.36 1011.80 1012.28 1012.74 1013.13 1013.38 1013.44 1013.29 1012.95 1012.44 1011.84 1011.23 1010.71 1010.35 1010.21 1010.32 1010.68 1011.27 1012.03 1012.91 1013.83 1014.74 1015.60 1016.37 1017.05 1017.63 1018.13 1018.55 1018.90 1019.21 1019.48 1019.70 1019.88 1020.02 1020.12 1020.18 1020.18 1020.14 1020.04 1019.89 1019.69
1009.99 1010.23 1010.51 1010.84 1011.21 1011.60 1011.98 1012.29 1012.49 1012.53 1012.41 1012.12 1011.71 1011.23 1010.74 1010.32 1010.04 1009.95 1010.08 1010.43 1011.00 1011.73 1012.58 1013.50 1014.43 1015.32 1016.15 1016.90 1017.55 1018.11 1018.58 1018.96 1019.28 1019.53 1019.72 1019.86 1019.96 1020.01 1020.01 1019.97 1019.88 1019.73 1019.54 1019.29
1009.82 1010.05 1010.28 1010.54 1010.82 1011.10 1011.35 1011.55 1011.66 1011.66 1011.54 1011.30 1010.97 1010.59 1010.22 1009.91 1009.73 1009.71 1009.88 1010.25 1010.80 1011.52 1012.35 1013.27 1014.21 1015.13 1016.00 1016.80 1017.50 1018.09 1018.58 1018.98 1019.28 1019.50 1019.65 1019.74 1019.79 1019.79 1019.74 1019.66 1019.53 1019.34 1019.11 1018.83
1009.95 1010.15 1010.33 1010.49 1010.65 1010.78 1010.89 1010.95 1010.95 1010.87 1010.72 1010.50 1010.24 1009.96 1009.70 1009.52 1009.45 1009.52 1009.75 1010.15 1010.73 1011.44 1012.27 1013.18 1014.12 1015.05 1015.94 1016.75 1017.47 1018.07 1018.55 1018.92 1019.19 1019.36 1019.46 1019.50 1019.50 1019.46 1019.38 1019.27 1019.12 1018.92 1018.68 1018.38
1010.28 1010.44 1010.55 1010.62 1010.64 1010.62 1010.56 1010.47 1010.34 1010.18 1009.98 1009.78 1009.57 1009.38 1009.25 1009.19 1009.24 1009.42 1009.74 1010.21 1010.81 1011.54 1012.38 1013.27 1014.20 1015.12 1015.98 1016.78 1017.46 1018.03 1018.47 1018.79 1019.00 1019.12 1019.16 1019.15 1019.11 1019.04 1018.95 1018.83 1018.68 1018.49 1018.26 1017.98
1010.62 1010.75 1010.80 1010.77 1010.66 1010.50 1010.30 1010.06 1009.81 1009.57 1009.34 1009.14 1008.99 1008.90 1008.89 1008.98 1009.17 1009.47 1009.89 1010.44 1011.09 1011.84 1012.67 1013.55 1014.44 1015.31 1016.12 1016.85 1017.47 1017.97 1018.34 1018.58 1018.72 1018.77 1018.76 1018.71 1018.64 1018.56 1018.47 1018.37 1018.25 1018.09 1017.88 1017.62
1010.78 1010.90 1010.89 1010.79 1010.59 1010.31 1009.99 1009.65 1009.32 1009.02 1008.78 1008.62 1008.54 1008.56 1008.68 1008.91 1009.25 1009.68 1010.22 1010.84 1011.54 1012.31 1013.13 1013.97 1014.80 1015.59 1016.32 1016.96 1017.48 1017.88 1018.16 1018.31 1018.37 1018.36 1018.30 1018.22 1018.13 1018.06 1017.98 1017.91 1017.83 1017.71 1017.54 1017.30
1010.61 1010.72 1010.69 1010.55 1010.29 1009.96 1009.58 1009.19 1008.83 1008.53 1008.32 1008.22 1008.23 1008.37 1008.63 1009.01 1009.48 1010.05 1010.68 1011.38 1012.12 1012.89 1013.68 1014.46 1015.21 1015.90 1016.52 1017.05 1017.46 1017.75 1017.92 1017.99 1017.98 1017.91 1017.81 1017.71 1017.62 1017.55 1017.50 1017.46 1017.41 1017.32 1017.18 1016.96
1010.06 1010.17 1010.15 1010.01 1009.75 1009.42 1009.05 1008.68 1008.35 1008.10 1007.96 1007.95 1008.08 1008.35 1008.75 1009.26 1009.86 1010.53 1011.24 1011.99 1012.74 1013.50 1014.23 1014.94 1015.59 1016.17 1016.67 1017.08 1017.37 1017.56 1017.65 1017.64 1017.57 1017.46 1017.33 1017.21 1017.12 1017.06 1017.02 1017.00 1016.97 1016.90 1016.77 1016.56
1009.19 1009.32 1009.33 1009.22 1009.02 1008.74 1008.44 1008.14 1007.90 1007.75 1007.73 1007.84 1008.09 1008.49 1009.01 1009.63 1010.33 1011.07 1011.83 1012.59 1013.33 1014.04 1014.71 1015.32 1015.86 1016.33 1016.72 1017.02 1017.21 1017.32 1017.33 1017.27 1017.16 1017.02 1016.88 1016.75 1016.65 1016.58 1016.54 1016.52 1016.48 1016.40 1016.26 1016.04
1008.17 1008.31 1008.36 1008.32 1008.20 1008.02 1007.83 1007.66 1007.55 1007.53 1007.63 1007.87 1008.25 1008.75 1009.37 1010.07 1010.82 1011.60 1012.37 1013.11 1013.81 1014.46 1015.04 1015.55 1015.99 1016.36 1016.64 1016.85 1016.98 1017.02 1016.99 1016.91 1016.78 1016.63 1016.47 1016.33 1016.21 1016.12 1016.06 1016.00 1015.93 1015.82 1015.65 1015.40
1007.18 1007.34 1007.43 1007.46 1007.45 1007.40 1007.34 1007.31 1007.35 1007.47 1007.70 1008.05 1008.53 1009.11 1009.79 1010.52 1011.29 1012.06 1012.80 1013.50 1014.14 1014.70 1015.19 1015.61 1015.96 1016.24 1016.45 1016.60 1016.68 1016.69 1016.65 1016.56 1016.43 1016.28 1016.12 1015.96 1015.81 1015.69 1015.57 1015.45 1015.32 1015.16 1014.94 1014.65
1006.40 1006.57 1006.70 1006.81 1006.90 1006.97 1007.05 1007.16 1007.33 1007.58 1007.91 1008.36 1008.90 1009.52 1010.22 1010.95 1011.70 1012.43 1013.12 1013.75 1014.31 1014.79 1015.20 1015.53 1015.81 1016.02 1016.18 1016.29 1016.35 1016.36 1016.32 1016.24 1016.12 1015.98 1015.81 1015.63 1015.45 1015.26 1015.08 1014.89 1014.69 1014.46 1014.18 1013.86
1005.96 1006.12 1006.28 1006.45 1006.63 1006.81 1007.00 1007.23 1007.51 1007.85 1008.26 1008.75 1009.32 1009.95 1010.63 1011.34 1012.04 1012.71 1013.33 1013.88 1014.36 1014.77 1015.10 1015.37 1015.58 1015.75 1015.88 1015.97 1016.02 1016.04 1016.02 1015.96 1015.86 1015.71 1015.54 1015.33 1015.10 1014.86 1014.61 1014.34 1014.06 1013.76 1013.43 1013.07
Thickness
5665 5658 5657 5666 5674 5676 5676 5672 5671 5681 5692 5689 5683 5686 5695 5703 5702 5698 5695 5691 5685 5682 5682 5682 5681 5679 5678 5676 5673 5669 5665 5662 5658 5653 5648 5643 5638 5635 5632 5629 5626 5623 5620 5617
5652 5650 5664 5673 5675 5671 5666 5660 5663 5674 5687 5682 5678 5682 5695 5700 5699 5697 5692 5686 5680 5676 5674 5674 5673 5671 5669 5666 5664 5660 5657 5653 5650 5645 5641 5637 5632 5629 5625 5622 5619 5616 5613 5610
5644 5658 5666 5665 5662 5658 5657 5655 5659 5664 5674 5677 5670 5670 5687 5693 5695 5693 5690 5685 5679 5673 5669 5666 5664 5661 5659 5657 5655 5653 5649 5645 5641 5638 5633 5629 5624 5621 5617 5614 5611 5610 5607 5604
5648 5660 5657 5653 5653 5654 5648 5663 5664 5660 5652 5653 5663 5649 5679 5681 5680 5681 5680 5677 5673 5670 5665 5661 5658 5653 5651 5649 5647 5644 5641 5637 5633 5629 5625 5620 5615 5611 5609 5607 5605 5603 5601 5598
5644 5652 5646 5643 5650 5653 5653 5658 5656 5653 5646 5642 5654 5648 5669 5675 5670 5671 5672 5672 5668 5665 5660 5656 5652 5648 5645 5642 5639 5636 5633 5629 5625 5621 5617 5612 5608 5605 5602 5600 5598 5595 5593 5591
5645 5653 5649 5648 5652 5652 5652 5647 5646 5644 5636 5628 5654 5647 5660 5671 5676 5672 5670 5668 5664 5660 5655 5650 5647 5642 5638 5635 5632 5629 5625 5620 5617 5613 5609 5605 5600 5596 5593 5590 5588 5586 5584 5582
5630 5638 5645 5647 5636 5638 5638 5629 5621 5619 5614 5628 5665 5658 5666 5687 5691 5682 5673 5666 5661 5656 5650 5645 5640 5636 5631 5628 5625 5622 5617 5613 5609 5605 5601 5597 5593 5589 5585 5582 5579 5576 5574 5572
5616 5622 5638 5641 5637 5630 5628 5629 5620 5620 5627 5642 5650 5650 5670 5684 5687 5685 5676 5667 5659 5652 5646 5641 5636 5631 5626 5622 5619 5615 5610 5605 5602 5597 5593 5589 5585 5581 5577 5574 5571 5568 5565 5563
5621 5623 5641 5644 5642 5636 5629 5627 5639 5628 5630 5629 5644 5662 5663 5675 5673 5673 5668 5662 5655 5649 5643 5637 5632 5626 5621 5616 5612 5608 5603 5598 5593 5589 5584 5580 5576 5572 5568 5565 5562 5559 5557 5554
5626 5620 5622 5625 5630 5630 5632 5636 5627 5618 5612 5614 5641 5653 5653 5654 5658 5661 5659 5655 5651 5646 5640 5633 5627 5621 5615 5610 5605 5600 5595 5589 5585 5580 5575 5571 5567 5564 5560 5556 5553 5550 5548 5545
5624 5613 5608 5610 5614 5619 5621 5624 5627 5626 5628 5618 5622 5642 5664 5662 5661 5656 5654 5652 5648 5642 5636 5629 5622 5616 5609 5602 5596 5591 5586 5581 5575 5570 5566 5561 5557 5554 5551 5547 5544 5541 5538 5534
5621 5613 5607 5612 5626 5630 5628 5626 5624 5616 5622 5627 5617 5631 5661 5663 5661 5656 5651 5649 5645 5638 5631 5623 5616 5608 5600 5593 5587 5581 5576 5571 5565 5560 5556 5552 5548 5545 5541 5537 5534 5531 5527 5523
5616 5608 5600 5600 5606 5613 5618 5626 5629 5627 5622 5617 5613 5630 5649 5653 5652 5651 5646 5642 5637 5631 5623 5615 5607 5599 5591 5585 5578 5572 5566 5561 5555 5550 5546 5541 5537 5534 5530 5526 5523 5519 5515 5512
5618 5608 5607 5606 5613 5615 5614 5622 5625 5619 5610 5613 5621 5633 5635 5640 5640 5640 5637 5633 5627 5621 5613 5605 5597 5589 5582 5575 5568 5562 5556 5550 5545 5540 5535 5530 5526 5523 5519 5515 5511 5507 5503 5500
5608 5603 5611 5618 5622 5624 5622 5621 5620 5615 5618 5615 5626 5632 5641 5639 5636 5634 5629 5624 5617 5609 5602 5595 5586 5579 5571 5564 5557 5551 5545 5540 5534 5529 5524 5520 5516 5512 5508 5504 5500 5496 5492 5488
5601 5598 5605 5608 5615 5614 5612 5618 5619 5617 5619 5619 5622 5627 5642 5638 5633 5627 5621 5615 5607 5599 5592 5584 5576 5568 5560 5553 5546 5539 5533 5529 5524 5518 5514 5510 5506 5501 5497 5492 5488 5484 5480 5476
5593 5593 5593 5591 5605 5600 5594 5612 5616 5618 5623 5620 5614 5624 5629 5625 5623 5617 5611 5606 5598 5589 5580 5572 5563 5556 5548 5541 5535 5528 5523 5518 5513 5508 5504 5500 5495 5491 5486 5482 5477 5472 5468 5464
5591 5588 5586 5584 5586 5572 5607 5627 5626 5621 5623 5624 5623 5624 5620 5616 5610 5607 5603 5594 5585 5577 5568 5559 5550 5543 5536 5530 5524 5518 5512 5507 5502 5498 5494 5490 5485 5480 5475 5470 5466 5461 5457 5452
5588 5586 5580 5572 5570 5582 5607 5614 5615 5610 5611 5623 5619 5616 5606 5600 5593 5588 5588 5583 5573 5564 5555 5545 5537 5530 5524 5518 5512 5506 5501 5496 5492 5488 5484 5480 5474 5469 5464 5459 5454 5450 5445 5440
5574 5578 5573 5567 5562 5566 5598 5605 5611 5605 5594 5612 5611 5603 5591 5585 5571 5571 5571 5565 5556 5547 5539 5531 5524 5518 5512 5506 5501 5495 5490 5485 5481 5478 5474 5469 5464 5458 5453 5448 5443 5438 5432 5427
5560 5563 5561 5559 5557 5573 5594 5594 5595 5580 5587 5595 5596 5590 5580 5573 5567 5563 5556 5547 5540 5531 5524 5518 5512 5505 5500 5495 5490 5484 5479 5474 5471 5468 5464 5459 5453 5447 5442 5437 5431 5425 5419 5414
5564 5559 5559 5559 5554 5565 5583 5582 5581 5582 5583 5584 5581 5577 5569 5558 5553 5547 5539 5531 5524 5516 5511 5505 5498 5492 5488 5484 5478 5473 5468 5465 5462 5457 5452 5447 5442 5436 5431 5424 5418 5411 5404 5398
5572 5574 5573 5572 5572 5581 5581 5580 5578 5578 5574 5572 5567 5562 5553 5544 5537 5531 5523 5516 5511 5504 5498 5492 5486 5481 5476 5472 5467 5461 5458 5455 5450 5445 5440 5435 5430 5424 5417 5411 5404 5397 5389 5381
5572 5575 5573 5572 5572 5573 5572 5570 5567 5566 5564 5560 5555 5548 5540 5532 5524 5517 5510 5503 5497 5492 5486 5480 5474 5469 5464 5460 5456 5451 5448 5443 5438 5433 5428 5423 5417 5412 5405 5398 5390 5382 5373 5364
5567 5561 5562 5563 5565 5562 5562 5561 5557 5553 5550 5545 5539 5533 5527 5519 5511 5504 5497 5491 5485 5480 5474 5468 5462 5457 5453 5449 5445 5441 5436 5431 5426 5421 5416 5410 5404 5398 5392 5385 5376 5368 5360 5347
5558 5555 5554 5555 5559 5555 5552 5551 5547 5540 5535 5529 5522 5516 5511 5506 5499 5492 5485 5479 5473 5467 5461 5455 5450 5445 5441 5437 5433 5429 5424 5419 5414 5409 5403 5396 5390 5383 5376 5370 5366 5359 5347 5340